N2ADK Weather Reports


Display with metric or nautical units.
time (UTC)temp
F
wind
direction
speed
MPH
gust
MPH
rain 1hr
in
rain 24hr
in
rain mn
in
humidity
%
barometer
mb
20260905071537 62 0 0.0 1.0 0.00 0.00 0.00 96 1012.6
20260905070046 62 0 0.0 0.0 0.00 0.00 0.00 96 1012.7
20260905064543 62 0 0.0 1.0 0.00 0.01 0.00 96 1012.9
20260905063519 62 0 0.0 0.0 0.00 0.01 0.00 96 1012.9
20260905063039 62 0 0.0 0.0 0.00 0.01 0.00 96 1012.9
20260905061557 62 0 0.0 0.0 0.00 0.01 0.00 96 1012.9
20260905060051 62 0 0.0 1.0 0.00 0.01 0.00 95 1012.9
20260905054541 62 0 0.0 0.0 0.00 0.01 0.00 96 1013.0
20260905053043 63 0 0.0 2.0 0.00 0.01 0.00 95 1013.0
20260905051545 62 0 0.0 0.0 0.00 0.01 0.00 96 1013.0
20260905051020 62 0 0.0 0.0 0.00 0.01 0.00 96 1013.1
20260905050520 62 0 0.0 0.0 0.00 0.01 0.00 96 1013.1
20260905050040 62 0 0.0 0.0 0.00 0.01 0.00 96 1013.2
20260905045517 62 0 0.0 0.0 0.00 0.01 0.00 96 1013.3
20260905045020 62 0 0.0 1.0 0.00 0.01 0.00 96 1013.3
20260905044541 62 0 0.0 1.0 0.00 0.01 0.00 96 1013.3
20260905043040 61 0 0.0 0.0 0.00 0.01 0.00 96 1013.3
20260905042018 61 0 0.0 0.0 0.00 0.01 0.00 96 1013.2
20260905041539 61 0 0.0 0.0 0.00 0.01 0.00 96 1013.3
20260905041024 61 0 0.0 0.0 0.00 0.01 0.00 96 1013.3
20260905040520 61 0 0.0 0.0 0.00 0.01 0.00 96 1013.1
20260905040037 61 0 0.0 2.0 0.00 0.01 0.00 96 1013.1
20260905034552 60 0 0.0 0.0 0.00 0.01 0.01 97 1013.1
20260905033518 60 0 0.0 0.0 0.00 0.01 0.01 97 1013.3
20260905033038 60 0 0.0 0.0 0.00 0.01 0.01 97 1013.3
20260905032520 60 0 0.0 0.0 0.00 0.01 0.01 97 1013.1
20260905032021 60 0 0.0 0.0 0.00 0.01 0.01 97 1013.1
20260905031538 60 0 0.0 0.0 0.00 0.01 0.01 97 1013.1
20260905031020 60 0 0.0 0.0 0.00 0.01 0.01 97 1013.2
20260905030040 59 0 0.0 0.0 0.00 0.01 0.01 96 1013.2
20260905024539 60 0 0.0 0.0 0.00 0.01 0.01 95 1013.3
20260905024021 60 0 0.0 0.0 0.00 0.01 0.01 95 1013.2
20260905023521 60 0 0.0 2.0 0.00 0.01 0.01 95 1013.3
20260905023039 60 0 0.0 2.0 0.00 0.01 0.01 95 1013.4
20260905022523 60 0 0.0 0.0 0.00 0.01 0.01 95 1013.4
20260905022020 60 0 0.0 0.0 0.00 0.01 0.01 95 1013.3
20260905021536 60 0 0.0 0.0 0.00 0.01 0.01 95 1013.5
20260905021023 60 0 0.0 0.0 0.00 0.01 0.01 95 1013.6
20260905015019 60 0 0.0 0.0 0.00 0.01 0.01 94 1013.7
20260905014539 60 0 0.0 1.0 0.00 0.01 0.01 94 1013.6
20260905014021 60 0 0.0 1.0 0.00 0.01 0.01 94 1013.5
20260905013521 61 0 0.0 0.0 0.00 0.01 0.01 94 1013.6
20260905013037 61 0 0.0 0.0 0.00 0.01 0.01 94 1013.5
20260905011543 61 0 0.0 0.0 0.00 0.01 0.01 93 1013.6
20260905010038 62 0 0.0 2.0 0.00 0.01 0.01 93 1013.6
20260905005521 62 0 0.0 2.0 0.00 0.01 0.01 93 1013.5
20260905005020 62 352 0.0 2.0 0.00 0.01 0.01 93 1013.5
20260905004545 63 0 0.0 0.0 0.00 0.01 0.01 93 1013.6
20260905004020 63 0 0.0 0.0 0.00 0.01 0.01 93 1013.5
20260905003521 63 0 0.0 0.0 0.00 0.01 0.01 93 1013.5
20260905003039 63 0 0.0 1.0 0.00 0.01 0.01 92 1013.4
20260905001552 63 0 0.0 1.0 0.00 0.01 0.01 91 1013.3
20260905000519 64 0 0.0 0.0 0.00 0.01 0.01 90 1013.3
20260905000039 64 0 0.0 0.0 0.00 0.01 0.01 89 1013.3
20260904235520 65 0 0.0 0.0 0.00 0.01 0.01 88 1013.3
20260904235017 65 0 0.0 0.0 0.00 0.01 0.01 87 1013.5
20260904234542 66 0 0.0 0.0 0.00 0.01 0.01 86 1013.3
20260904234020 66 0 0.0 0.0 0.00 0.01 0.01 85 1013.3
20260904233521 67 0 0.0 0.0 0.00 0.01 0.01 84 1013.3
20260904233043 67 0 0.0 0.0 0.00 0.01 0.01 82 1013.3
20260904232521 68 0 0.0 0.0 0.00 0.01 0.01 82 1013.2
20260904232022 68 0 0.0 1.0 0.00 0.01 0.01 82 1013.2
20260904231550 69 0 0.0 1.0 0.00 0.01 0.01 82 1013.2
20260904231016 70 0 0.0 1.0 0.00 0.01 0.01 81 1013.2
20260904230044 71 0 0.0 1.0 0.00 0.01 0.01 74 1013.1
20260904225018 72 0 0.0 2.0 0.00 0.01 0.01 72 1013.0
20260904224548 72 352 0.0 2.0 0.00 0.01 0.01 71 1012.9
20260904224020 73 0 0.0 4.0 0.00 0.01 0.01 70 1012.9
20260904223521 73 352 0.0 4.0 0.00 0.01 0.01 69 1012.9
20260904223055 73 9 0.0 3.0 0.00 0.01 0.01 68 1012.9
20260904222520 73 9 0.0 3.0 0.00 0.01 0.01 68 1013.1
20260904222020 74 0 0.0 3.0 0.00 0.01 0.01 70 1013.0
20260904221538 74 0 0.0 5.0 0.00 0.01 0.01 67 1012.9
20260904221018 74 0 1.0 8.0 0.00 0.01 0.01 67 1012.8
20260904220519 74 342 2.0 8.0 0.00 0.01 0.01 65 1013.0
20260904220040 75 309 2.0 8.0 0.00 0.01 0.01 65 1013.0
20260904214021 75 277 1.0 4.0 0.00 0.01 0.01 66 1012.9
20260904213526 75 309 1.0 9.0 0.00 0.01 0.01 68 1012.9
20260904213042 74 273 3.0 9.0 0.00 0.01 0.01 67 1013.0
20260904211541 75 13 2.0 8.0 0.00 0.01 0.01 67 1012.9
20260904210520 74 49 1.0 6.0 0.00 0.01 0.01 67 1013.1
20260904210054 75 272 2.0 11.0 0.00 0.01 0.01 66 1013.1
20260904205521 75 200 3.0 11.0 0.00 0.01 0.01 66 1013.2
20260904205020 75 68 2.0 10.0 0.00 0.01 0.01 66 1013.1
20260904204538 75 87 1.0 11.0 0.00 0.01 0.01 66 1013.0
20260904204019 75 54 1.0 11.0 0.00 0.01 0.01 68 1013.2
20260904203039 75 265 1.0 9.0 0.00 0.01 0.01 66 1013.1
20260904201541 76 353 2.0 8.0 0.00 0.01 0.01 65 1013.4
20260904200520 76 288 2.0 15.0 0.00 0.01 0.01 65 1013.3
20260904200040 76 295 2.0 15.0 0.00 0.01 0.01 64 1013.2
20260904195520 76 313 2.0 11.0 0.00 0.01 0.01 65 1013.4
20260904194546 76 277 3.0 11.0 0.00 0.01 0.01 64 1013.4
20260904193050 76 260 3.0 10.0 0.00 0.01 0.01 65 1013.5
20260904191550 77 10 4.0 13.0 0.00 0.01 0.01 63 1013.4
20260904190044 77 0 3.0 11.0 0.00 0.01 0.01 62 1013.5
20260904184545 77 320 2.0 10.0 0.00 0.01 0.01 64 1013.6
20260904183040 78 265 2.0 12.0 0.00 0.01 0.01 64 1013.7
20260904181539 78 336 2.0 8.0 0.00 0.01 0.01 61 1013.8
20260904181022 79 344 3.0 8.0 0.00 0.01 0.01 65 1013.7
20260904180048 78 271 3.0 9.0 0.00 0.01 0.01 63 1013.8
20260904174542 78 243 2.0 8.0 0.00 0.01 0.01 63 1013.9
20260904173050 77 46 1.0 11.0 0.00 0.01 0.01 64 1013.7
20260904171546 77 0 1.0 9.0 0.00 0.01 0.01 68 1014.0
20260904170047 77 0 3.0 12.0 0.00 0.01 0.01 65 1014.0
20260904164538 77 1 4.0 17.0 0.00 0.01 0.01 66 1013.9
20260904164019 76 255 3.0 9.0 0.00 0.01 0.01 68 1014.0
20260904161539 76 250 4.0 12.0 0.00 0.01 0.01 67 1013.8
20260904160524 76 255 2.0 9.0 0.00 0.01 0.01 69 1014.0
20260904160042 76 279 1.0 8.0 0.00 0.01 0.01 71 1013.9
20260904155519 76 337 2.0 8.0 0.00 0.01 0.01 68 1013.9
20260904155020 75 287 2.0 8.0 0.00 0.01 0.01 69 1013.9
20260904154538 75 0 2.0 8.0 0.00 0.01 0.01 71 1013.9
20260904154018 75 300 2.0 6.0 0.00 0.01 0.01 72 1014.1
20260904153520 75 239 1.0 6.0 0.00 0.01 0.01 71 1014.0
20260904153041 75 353 1.0 7.0 0.00 0.01 0.01 73 1014.0
20260904152520 76 213 1.0 7.0 0.00 0.01 0.01 70 1014.1
20260904152024 76 341 2.0 7.0 0.00 0.01 0.01 71 1014.1
20260904151542 76 0 1.0 9.0 0.00 0.01 0.01 72 1014.1
20260904151018 75 352 2.0 9.0 0.00 0.01 0.01 74 1014.3
20260904150520 75 309 1.0 8.0 0.00 0.01 0.01 76 1014.2
20260904150038 75 265 2.0 8.0 0.00 0.01 0.01 74 1014.3
20260904145519 75 352 0.0 8.0 0.00 0.01 0.01 76 1014.2
20260904145019 74 0 1.0 8.0 0.00 0.01 0.01 77 1014.1
20260904144556 75 0 1.0 7.0 0.00 0.01 0.01 78 1014.1
20260904143054 73 265 1.0 5.0 0.00 0.01 0.01 80 1014.3
20260904142521 72 0 1.0 8.0 0.00 0.01 0.01 82 1014.3
20260904142020 72 358 2.0 8.0 0.00 0.01 0.01 82 1014.5
20260904141538 72 6 0.0 4.0 0.00 0.01 0.01 86 1014.2
20260904141018 71 344 0.0 5.0 0.00 0.01 0.01 87 1014.3
20260904140521 71 0 1.0 5.0 0.00 0.01 0.01 87 1014.4
20260904140039 71 282 0.0 4.0 0.00 0.01 0.01 89 1014.4
20260904133517 68 30 1.0 3.0 0.00 0.01 0.01 98 1014.3
20260904133040 68 0 0.0 0.0 0.00 0.01 0.01 98 1014.0
20260904131548 67 0 0.0 1.0 0.00 0.01 0.01 99 1014.0
20260904130042 66 0 0.0 1.0 0.00 0.01 0.01 99 1014.3
20260904124539 65 0 0.0 2.0 0.00 0.01 0.01 99 1014.3
20260904123527 64 0 0.0 1.0 0.00 0.01 0.01 99 1014.3
20260904123046 64 0 0.0 1.0 0.00 0.01 0.01 99 1014.4
20260904122525 64 0 0.0 1.0 0.00 0.01 0.01 99 1014.5
20260904121545 63 0 0.0 1.0 0.00 0.01 0.01 99 1014.1
20260904120043 62 0 0.0 2.0 0.00 0.01 0.01 99 1014.3
20260904114541 62 0 0.0 0.0 0.00 0.01 0.01 99 1014.3
20260904113040 61 0 0.0 0.0 0.00 0.01 0.01 99 1014.3
20260904112520 61 0 0.0 0.0 0.00 0.01 0.01 99 1014.2
20260904112020 61 0 0.0 0.0 0.00 0.01 0.01 98 1014.1
20260904111546 61 0 0.0 0.0 0.00 0.01 0.01 98 1014.2
20260904111020 61 0 0.0 0.0 0.00 0.01 0.01 99 1014.0
20260904110041 60 0 0.0 0.0 0.00 0.01 0.01 98 1013.9
20260904104541 60 0 0.0 0.0 0.00 0.01 0.01 98 1013.8
20260904103521 60 0 0.0 0.0 0.00 0.01 0.01 98 1013.7
20260904103045 61 0 0.0 0.0 0.00 0.01 0.01 98 1013.6
20260904101541 61 0 0.0 0.0 0.00 0.01 0.01 98 1013.5
20260904100039 61 0 0.0 0.0 0.00 0.01 0.01 98 1013.5
20260904094540 61 0 0.0 0.0 0.00 0.01 0.01 98 1013.3
20260904094020 61 0 0.0 1.0 0.00 0.01 0.01 98 1013.3
20260904093521 61 0 0.0 1.0 0.00 0.01 0.01 98 1013.3
20260904093048 61 0 0.0 0.0 0.00 0.01 0.01 98 1013.3
20260904091550 61 0 0.0 0.0 0.00 0.01 0.01 98 1013.1
20260904090041 62 0 0.0 0.0 0.00 0.01 0.01 98 1013.2
20260904085024 62 0 0.0 0.0 0.00 0.01 0.01 98 1012.9
20260904084539 62 0 0.0 0.0 0.00 0.01 0.01 98 1012.9
20260904084020 62 0 0.0 0.0 0.00 0.01 0.01 98 1012.9
20260904083522 62 0 0.0 0.0 0.00 0.01 0.01 97 1012.9
20260904083041 63 0 0.0 0.0 0.00 0.01 0.01 97 1012.8
20260904081539 63 0 0.0 0.0 0.00 0.01 0.01 98 1012.8
20260904081021 63 0 0.0 0.0 0.00 0.01 0.01 98 1012.7
20260904080521 63 0 0.0 0.0 0.00 0.01 0.01 97 1012.7
20260904080038 63 0 0.0 0.0 0.00 0.01 0.01 97 1012.7
20260904075521 64 0 0.0 0.0 0.00 0.01 0.01 98 1012.7
20260904074558 64 0 0.0 0.0 0.01 0.01 0.01 98 1012.7
20260904073557 64 0 0.0 0.0 0.01 0.01 0.01 98 1012.5
20260904073040 64 0 0.0 0.0 0.01 0.01 0.01 98 1012.6